Weather Roundup
Issued by NWS

Home | Current Version | Previous Version | Graphics & Text | Print | Product List | Glossary Off
Versions: 1 2 3 4 5 6 7 8 9 10 11 12 13 14 15 16 17 18 19 20 21 22 23 24 25 26 27 28 29 30 31 32 33 34 35 36 37 38 39 40 41 42 43 44 45 46 47 48 49 50

000
NZUS93 KARX 202059
HRRWXR

CURRENT HOURLY OBSERVATIONS ACROSS
MUCH OF THE UPPER MISSISSIPPI VALLEY
NATIONAL WEATHER SERVICE LA CROSSE WI
300 PM CST SAT DEC 20 2014


...SOUTHEAST MINNESOTA...


CITY           SKY/WX    TMP DP  RH WIND       PRES   REMARKS
ROCHESTER      CLOUDY    30  28  92 S9        30.12S FOG     WCI  22
ROCHESTER/MAYO CLOUDY    31  29  96 SE6       30.12S WCI  25
WINONA         CLOUDY    34  30  86 SE6       30.17S FOG     WCI  29
AUSTIN         CLOUDY    30  28  93 S7        30.10F WCI  23
ALBERT LEA     CLOUDY    30  30 100 S7        30.09S FOG     WCI  23
DODGE CENTER   CLOUDY    30  30 100 S10       30.10F FOG     WCI  21
PRESTON        CLOUDY    30  28  94 S8        30.13S FOG     WCI  22
OWATONNA       CLOUDY    30  27  86 S7        30.10S WCI  23
FARIBAULT      CLOUDY    30  28  93 SE7       30.11S WCI  23
$$

...ELSEWHERE IN MINNESOTA...


CITY           SKY/WX    TMP DP  RH WIND       PRES   REMARKS
MINNEAPOLIS    CLOUDY    31  27  85 S6        30.12S WCI  25
INTNL FALLS    CLOUDY    30  28  92 SE5       30.00S FOG     WCI  25
DULUTH         CLOUDY    30  26  85 S7        30.06S FOG     WCI  23
RED WING       CLOUDY    32  28  86 SE5       30.13S FOG     WCI  27
REDWOOD FALLS  CLOUDY    32  28  85 S12       30.05F WCI  23
MANKATO        CLOUDY    30  25  80 S9        30.10R WCI  22
WORTHINGTON    CLOUDY    28  27  93 S12       30.04R WCI  18
FAIRMONT       CLOUDY    30  27  86 S10       30.08R WCI  21
$$

...SOUTHWEST WISCONSIN...


CITY           SKY/WX    TMP DP  RH WIND       PRES   REMARKS
LA CROSSE      CLOUDY    33  27  78 S7        30.18R WCI  27
PRAIRIE DU CHI CLOUDY    32  27  83 SE7       30.18F HAZE    WCI  26
BOSCOBEL       CLOUDY    33  25  72 CALM      30.20S
LONE ROCK      NOT AVBL
PLATTEVILLE    CLOUDY    32  27  82 CALM      30.19S
FORT MC COY    CLOUDY    31  26  83 SE6       30.18F HAZE    WCI  25
VIROQUA        CLOUDY    29  29 100 SE8       30.16S WCI  21
WIS DELLS      NOT AVBL
$$

...ELSEWHERE IN WISCONSIN...


CITY           SKY/WX    TMP DP  RH WIND       PRES   REMARKS
MILWAUKEE      FLURRIES  31  22  69 W5        30.23S WCI  26
MADISON        LGT SNOW  30  27  88 S7        30.21S FOG     WCI  23
GREEN BAY      CLOUDY    30  24  78 CALM      30.23R
EAU CLAIRE     CLOUDY    32  25  74 SE8       30.15S WCI  25
BLACK RVR FLS  CLOUDY    32  26  80 S3        30.17F HAZE
MEDFORD        CLOUDY    28  25  89 SE6       30.15S FOG     WCI  21
WAUSAU         CLOUDY    30  24  78 S7        30.16S WCI  23
WIS RAPIDS     CLOUDY    31  24  75 SE6       30.20S WCI  25
MARSHFIELD     CLOUDY    30  25  81 SE7       30.16F HAZE    WCI  23
RICE LAKE      CLOUDY    32  27  81 SE10      30.14F WCI  23
$$

...NORTHEAST IOWA...


CITY           SKY/WX    TMP DP  RH WIND       PRES   REMARKS
DECORAH        CLOUDY    30  30 100 SE7       30.14S FOG     WCI  23
MASON CITY     CLOUDY    30  27  88 CALM      30.12F
CHARLES CITY   CLOUDY    32  32 100 S9        30.13S FOG     WCI  24
OELWEIN        CLOUDY    32  30  93 SE10      30.15S FOG     WCI  24
$$

...ELSEWHERE IN IOWA...


CITY           SKY/WX    TMP DP  RH WIND       PRES   REMARKS
DES MOINES     CLOUDY    36  33  89 S8        30.12R WCI  30
IOWA CITY      CLOUDY    33  31  92 SE3       30.19S FOG
FORT DODGE     CLOUDY    34  28  80 S6        30.10S WCI  29
$$

...NORTHERN ILLINOIS...


CITY           SKY/WX    TMP DP  RH WIND       PRES   REMARKS
CHICAGO-OHARE  FLURRIES  33  24  69 S6        30.23S WCI  28
CHICAGO-MIDWAY FLURRIES  34  25  69 SW6       30.24S WCI  29
MOLINE         CLOUDY    34  27  75 SE6       30.20S HAZE    WCI  29
ROCKFORD       CLOUDY    31  24  75 S6        30.24S WCI  25
PEORIA         CLOUDY    37  27  67 S7        30.22F WCI  32
$$

NOTE: "FAIR" INDICATES FEW OR NO CLOUDS BELOW 12,000 FEET WITH NO
SIGNIFICANT WEATHER AND/OR OBSTRUCTIONS TO VISIBILITY. WIND
SPEEDS ARE IN MILES-PER-HOUR.



USA.gov is the U.S. government's official web portal to all federal, state and local government web resources and services.